owner,sensor,date,latitude,longitude,vertical_datum,wind_speed,wind_to_direction,wind_speed_of_gust,qcFlag 
TABS,ioos:station:TABS:H:1,2007-03-01T00:00:00Z,27.8674,-96.5433,4.0,4.115968902,134.0159513,4.98,'11111222,11111222,11111222' 
TABS,ioos:station:TABS:H:1,2007-03-01T00:30:00Z,27.8674,-96.5433,4.0,3.592714851,129.8058989,4.03,'11111222,11111222,11111222' 
TABS,ioos:station:TABS:H:1,2007-03-01T01:00:00Z,27.8674,-96.5433,4.0,4.280280365,131.2114347,5.21,'11111222,11111222,11111222' 
TABS,ioos:station:TABS:H:1,2007-03-01T01:30:00Z,27.8674,-96.5433,4.0,4.057043258,144.4297816,4.92,'11111222,11111222,11111222' 
TABS,ioos:station:TABS:H:1,2007-03-01T02:00:00Z,27.8674,-96.5433,4.0,3.237483591,141.3957706,4.21,'11111222,11111222,11111222' 
TABS,ioos:station:TABS:H:1,2007-03-01T02:30:00Z,27.8674,-96.5433,4.0,3.644242034,142.4700504,4.7,'11111222,11111222,11111222' 
TABS,ioos:station:TABS:H:1,2007-03-01T03:00:00Z,27.8674,-96.5433,4.0,4.834149356,143.5807899,6.37,'11111222,11111222,11111222' 
TABS,ioos:station:TABS:H:1,2007-03-01T03:30:00Z,27.8674,-96.5433,4.0,5.508330055,145.8774834,6.66,'11111222,11111222,11111222' 
TABS,ioos:station:TABS:H:1,2007-03-01T04:00:00Z,27.8674,-96.5433,4.0,5.485553755,157.8303339,6.48,'11111222,11111222,11111222' 
TABS,ioos:station:TABS:H:1,2007-03-01T04:30:00Z,27.8674,-96.5433,4.0,5.718688661,148.0055222,6.71,'11111222,11111222,11111222' 
TABS,ioos:station:TABS:H:1,2007-03-01T05:00:00Z,27.8674,-96.5433,4.0,6.434718331,148.7311153,7.48,'11111222,11111222,11111222' 
TABS,ioos:station:TABS:H:1,2007-03-01T05:30:00Z,27.8674,-96.5433,4.0,5.578826041,151.8734175,6.74,'11111222,11111222,11111222' 
TABS,ioos:station:TABS:H:1,2007-03-01T06:00:00Z,27.8674,-96.5433,4.0,3.824264635,154.4403051,4.39,'11111222,11111222,11111222' 
TABS,ioos:station:TABS:H:1,2007-03-01T06:30:00Z,27.8674,-96.5433,4.0,5.075046798,151.2636756,5.9,'11111222,11111222,11111222' 
TABS,ioos:station:TABS:H:1,2007-03-01T07:00:00Z,27.8674,-96.5433,4.0,5.143393821,152.6879293,6.28,'11111222,11111222,11111222' 
TABS,ioos:station:TABS:H:1,2007-03-01T07:30:00Z,27.8674,-96.5433,4.0,4.515418032,155.53531,5.13,'11111222,11111222,11111222' 
TABS,ioos:station:TABS:H:1,2007-03-01T08:00:00Z,27.8674,-96.5433,4.0,5.363357158,174.6510455,6.19,'11111222,11111222,11111222' 
TABS,ioos:station:TABS:H:1,2007-03-01T08:30:00Z,27.8674,-96.5433,4.0,5.150038835,179.7777042,6.09,'11111222,11111222,11111222' 
TABS,ioos:station:TABS:H:1,2007-03-01T09:00:00Z,27.8674,-96.5433,4.0,4.579475953,187.5286939,5.35,'11111222,11111222,11111222' 
TABS,ioos:station:TABS:H:1,2007-03-01T09:30:00Z,27.8674,-96.5433,4.0,5.213233162,172.616203,5.94,'11111222,11111222,11111222' 
TABS,ioos:station:TABS:H:1,2007-03-01T10:00:00Z,27.8674,-96.5433,4.0,4.39001139,180.1307242,5.26,'11111222,11111222,11111222' 
TABS,ioos:station:TABS:H:1,2007-03-01T10:30:00Z,27.8674,-96.5433,4.0,5.598080028,174.2590784,6.96,'11111222,11111222,11111222' 
TABS,ioos:station:TABS:H:1,2007-03-01T11:00:00Z,27.8674,-96.5433,4.0,7.339591269,166.607744,8.3,'11111222,11111222,11111222' 
TABS,ioos:station:TABS:H:1,2007-03-01T11:30:00Z,27.8674,-96.5433,4.0,6.242339305,171.896088,7.43,'11111222,11111222,11111222' 
TABS,ioos:station:TABS:H:1,2007-03-01T12:00:00Z,27.8674,-96.5433,4.0,4.576308556,186.1468217,5.82,'11111222,11111222,11111222' 
TABS,ioos:station:TABS:H:1,2007-03-01T12:30:00Z,27.8674,-96.5433,4.0,2.640927867,271.5188468,3.08,'11111222,11111222,11111222' 
TABS,ioos:station:TABS:H:1,2007-03-01T13:00:00Z,27.8674,-96.5433,4.0,2.873395204,303.3581644,3.53,'11111222,11111222,11111222' 
TABS,ioos:station:TABS:H:1,2007-03-01T13:30:00Z,27.8674,-96.5433,4.0,2.433433788,295.3013195,3.05,'11111222,11111222,11111222' 
TABS,ioos:station:TABS:H:1,2007-03-01T14:00:00Z,27.8674,-96.5433,4.0,0.912688337,184.3989055,2.27,'11111222,11111222,11111222' 
TABS,ioos:station:TABS:H:1,2007-03-01T14:30:00Z,27.8674,-96.5433,4.0,3.237838785,296.4067142,3.75,'11111222,11111222,11111222' 
TABS,ioos:station:TABS:H:1,2007-03-01T15:00:00Z,27.8674,-96.5433,4.0,2.929590415,295.6903143,3.78,'11111222,11111222,11111222' 
TABS,ioos:station:TABS:H:1,2007-03-01T15:30:00Z,27.8674,-96.5433,4.0,4.338202393,295.9743332,14.7,'11111222,11111222,11111222' 
TABS,ioos:station:TABS:H:1,2007-03-01T16:00:00Z,27.8674,-96.5433,4.0,12.30837114,348.9455029,15.3,'11111222,11111222,11111222' 
TABS,ioos:station:TABS:H:1,2007-03-01T16:30:00Z,27.8674,-96.5433,4.0,10.91230956,354.9527354,12.85,'11111222,11111222,11111222' 
TABS,ioos:station:TABS:H:1,2007-03-01T17:00:00Z,27.8674,-96.5433,4.0,10.57057236,0.596033013,12.67,'11111222,11111222,11111222' 
TABS,ioos:station:TABS:H:1,2007-03-01T17:30:00Z,27.8674,-96.5433,4.0,10.42727673,3.298482689,13.12,'11111222,11111222,11111222' 
TABS,ioos:station:TABS:H:1,2007-03-01T18:00:00Z,27.8674,-96.5433,4.0,8.219422121,6.286081012,9.75,'11111222,11111222,11111222' 
TABS,ioos:station:TABS:H:1,2007-03-01T18:30:00Z,27.8674,-96.5433,4.0,7.979053829,2.729509698,9.65,'11111222,11111222,11111222' 
TABS,ioos:station:TABS:H:1,2007-03-01T19:00:00Z,27.8674,-96.5433,4.0,6.824404736,350.979172,8.03,'11111222,11111222,11111222' 
TABS,ioos:station:TABS:H:1,2007-03-01T19:30:00Z,27.8674,-96.5433,4.0,6.371130198,358.9205644,7.92,'11111222,11111222,11111222' 
TABS,ioos:station:TABS:H:1,2007-03-01T20:00:00Z,27.8674,-96.5433,4.0,4.460784684,14.93944554,5.85,'11111222,11111222,11111222' 
TABS,ioos:station:TABS:H:1,2007-03-01T20:30:00Z,27.8674,-96.5433,4.0,5.750008696,359.900145,7.21,'11111222,11144222,11111222' 
TABS,ioos:station:TABS:H:1,2007-03-01T21:00:00Z,27.8674,-96.5433,4.0,6.156833602,357.3000435,7.71,'11111222,11111222,11111222' 
TABS,ioos:station:TABS:H:1,2007-03-01T21:30:00Z,27.8674,-96.5433,4.0,7.541697422,358.7841493,8.98,'11111222,11111222,11111222' 
TABS,ioos:station:TABS:H:1,2007-03-01T22:00:00Z,27.8674,-96.5433,4.0,6.980179081,0.410209782,8.03,'11111222,11111222,11111222' 
TABS,ioos:station:TABS:H:1,2007-03-01T22:30:00Z,27.8674,-96.5433,4.0,5.749173854,6.69214425,6.79,'11111222,11111222,11111222' 
TABS,ioos:station:TABS:H:1,2007-03-01T23:00:00Z,27.8674,-96.5433,4.0,4.501877386,1.654536848,5.32,'11111222,11111222,11111222' 
TABS,ioos:station:TABS:H:1,2007-03-01T23:30:00Z,27.8674,-96.5433,4.0,3.190250774,0.718192587,3.66,'11111222,11111222,11111222' 
TABS,ioos:station:TABS:H:1,2007-03-02T00:00:00Z,27.8674,-96.5433,4.0,2.753924472,22.18749179,3.19,'11111222,11111222,11111222' 
TABS,ioos:station:TABS:H:1,2007-03-02T00:30:00Z,27.8674,-96.5433,4.0,3.161012496,38.31981387,3.65,'11111222,11111222,11111222' 
TABS,ioos:station:TABS:H:1,2007-03-02T01:00:00Z,27.8674,-96.5433,4.0,3.328453094,16.58357919,3.7,'11111222,11111222,11111222' 
TABS,ioos:station:TABS:H:1,2007-03-02T01:30:00Z,27.8674,-96.5433,4.0,5.030795166,12.04679186,5.91,'11111222,11111222,11111222' 
TABS,ioos:station:TABS:H:1,2007-03-02T02:00:00Z,27.8674,-96.5433,4.0,6.118055247,8.553688699,7.56,'11111222,11111222,11111222' 
TABS,ioos:station:TABS:H:1,2007-03-02T02:30:00Z,27.8674,-96.5433,4.0,7.256679682,10.72127449,8.27,'11111222,11111222,11111222' 
TABS,ioos:station:TABS:H:1,2007-03-02T03:00:00Z,27.8674,-96.5433,4.0,8.549812863,17.14189421,10.2,'11111222,11111222,11111222' 
TABS,ioos:station:TABS:H:1,2007-03-02T03:30:00Z,27.8674,-96.5433,4.0,9.071019788,19.51335611,10.72,'11111222,11111222,11111222' 
TABS,ioos:station:TABS:H:1,2007-03-02T04:00:00Z,27.8674,-96.5433,4.0,8.452881166,21.9521907,10.08,'11111222,11111222,11111222' 
TABS,ioos:station:TABS:H:1,2007-03-02T04:30:00Z,27.8674,-96.5433,4.0,6.910752492,27.67717561,9.12,'11111222,11111222,11111222' 
TABS,ioos:station:TABS:H:1,2007-03-02T05:00:00Z,27.8674,-96.5433,4.0,4.857427303,48.00369727,6.42,'11111222,11111222,11111222' 
TABS,ioos:station:TABS:H:1,2007-03-02T05:30:00Z,27.8674,-96.5433,4.0,5.426029856,52.93969802,6.79,'11111222,11111222,11111222' 
TABS,ioos:station:TABS:H:1,2007-03-02T06:00:00Z,27.8674,-96.5433,4.0,5.518876697,58.7866302,6.48,'11111222,11111222,11111222' 
TABS,ioos:station:TABS:H:1,2007-03-02T06:30:00Z,27.8674,-96.5433,4.0,5.269250421,58.02884865,6.32,'11111222,11111222,11111222' 
TABS,ioos:station:TABS:H:1,2007-03-02T07:00:00Z,27.8674,-96.5433,4.0,6.732109625,42.29055465,8.5,'11111222,11111222,11111222' 
TABS,ioos:station:TABS:H:1,2007-03-02T07:30:00Z,27.8674,-96.5433,4.0,6.595528789,39.21575832,7.76,'11111222,11111222,11111222' 
TABS,ioos:station:TABS:H:1,2007-03-02T08:00:00Z,27.8674,-96.5433,4.0,6.009600652,51.1462956,7.33,'11111222,11111222,11111222' 
TABS,ioos:station:TABS:H:1,2007-03-02T08:30:00Z,27.8674,-96.5433,4.0,5.145143341,55.69187146,6.4,'11111222,11111222,11111222' 
TABS,ioos:station:TABS:H:1,2007-03-02T09:00:00Z,27.8674,-96.5433,4.0,5.710481591,65.58889633,6.88,'11111222,11111222,11111222' 
TABS,ioos:station:TABS:H:1,2007-03-02T09:30:00Z,27.8674,-96.5433,4.0,5.738823921,75.26113238,7.24,'11111222,11111222,11111222' 
TABS,ioos:station:TABS:H:1,2007-03-02T10:00:00Z,27.8674,-96.5433,4.0,6.402382369,81.37590729,7.61,'11111222,11111222,11111222' 
TABS,ioos:station:TABS:H:1,2007-03-02T10:30:00Z,27.8674,-96.5433,4.0,6.56829506,87.11975619,8.47,'11111222,11111222,11111222' 
TABS,ioos:station:TABS:H:1,2007-03-02T11:00:00Z,27.8674,-96.5433,4.0,6.646803743,98.13050426,7.91,'11111222,11111222,11111222' 
TABS,ioos:station:TABS:H:1,2007-03-02T11:30:00Z,27.8674,-96.5433,4.0,6.637266003,97.53229744,8.13,'11111222,11111222,11111222' 
TABS,ioos:station:TABS:H:1,2007-03-02T12:00:00Z,27.8674,-96.5433,4.0,6.012528586,94.96189476,7.26,'11111222,11111222,11111222' 
TABS,ioos:station:TABS:H:1,2007-03-02T12:30:00Z,27.8674,-96.5433,4.0,6.031956565,103.7141022,7.99,'11111222,11111222,11111222' 
TABS,ioos:station:TABS:H:1,2007-03-02T13:00:00Z,27.8674,-96.5433,4.0,6.058753997,103.5549742,7.41,'11111222,11111222,11111222' 
TABS,ioos:station:TABS:H:1,2007-03-02T13:30:00Z,27.8674,-96.5433,4.0,6.139486949,109.7044198,7.26,'11111222,11111222,11111222' 
TABS,ioos:station:TABS:H:1,2007-03-02T14:00:00Z,27.8674,-96.5433,4.0,5.441663349,121.0905056,6.58,'11111222,11111222,11111222' 
TABS,ioos:station:TABS:H:1,2007-03-02T14:30:00Z,27.8674,-96.5433,4.0,5.518876697,116.0082576,6.59,'11111222,11111222,11111222' 
TABS,ioos:station:TABS:H:1,2007-03-02T15:00:00Z,27.8674,-96.5433,4.0,5.045156093,125.6436296,6.52,'11111222,11111222,11111222' 
TABS,ioos:station:TABS:H:1,2007-03-02T15:30:00Z,27.8674,-96.5433,4.0,4.954644286,120.7062863,6.48,'11111222,11111222,11111222' 
TABS,ioos:station:TABS:H:1,2007-03-02T16:00:00Z,27.8674,-96.5433,4.0,4.301162634,125.5380156,5.29,'11111222,11111222,11111222' 
TABS,ioos:station:TABS:H:1,2007-03-02T16:30:00Z,27.8674,-96.5433,4.0,4.179688984,123.8805073,5.02,'11111222,11111222,11111222' 
TABS,ioos:station:TABS:H:1,2007-03-02T17:00:00Z,27.8674,-96.5433,4.0,3.608434564,125.9810143,4.7,'11111222,11111222,11111222' 
TABS,ioos:station:TABS:H:1,2007-03-02T17:30:00Z,27.8674,-96.5433,4.0,3.890308471,141.1564847,4.76,'11111222,11111222,11111222' 
TABS,ioos:station:TABS:H:1,2007-03-02T18:00:00Z,27.8674,-96.5433,4.0,4.394360022,124.9923593,5.25,'11111222,11111222,11111222' 
TABS,ioos:station:TABS:H:1,2007-03-02T18:30:00Z,27.8674,-96.5433,4.0,4.024649053,128.9491714,5.34,'11111222,11111222,11111222' 
TABS,ioos:station:TABS:H:1,2007-03-02T19:00:00Z,27.8674,-96.5433,4.0,3.733751465,131.4172211,4.59,'11111222,11111222,11111222' 
TABS,ioos:station:TABS:H:1,2007-03-02T19:30:00Z,27.8674,-96.5433,4.0,4.00585821,141.3851676,4.92,'11111222,11111222,11111222' 
TABS,ioos:station:TABS:H:1,2007-03-02T20:00:00Z,27.8674,-96.5433,4.0,4.059187111,135.7988096,4.91,'11111222,11111222,11111222' 
TABS,ioos:station:TABS:H:1,2007-03-02T20:30:00Z,27.8674,-96.5433,4.0,3.91035804,134.6894925,4.93,'11111222,11111222,11111222' 
TABS,ioos:station:TABS:H:1,2007-03-02T21:00:00Z,27.8674,-96.5433,4.0,4.351746776,132.8585499,5.46,'11111222,11111222,11111222' 
TABS,ioos:station:TABS:H:1,2007-03-02T21:30:00Z,27.8674,-96.5433,4.0,4.72594964,130.1939697,5.76,'11111222,11111222,11111222' 
TABS,ioos:station:TABS:H:1,2007-03-02T22:00:00Z,27.8674,-96.5433,4.0,4.877786383,125.3195395,6.16,'11111222,11111222,11111222' 
TABS,ioos:station:TABS:H:1,2007-03-02T22:30:00Z,27.8674,-96.5433,4.0,5.622277119,128.5009846,6.93,'11111222,11111222,11111222' 
TABS,ioos:station:TABS:H:1,2007-03-02T23:00:00Z,27.8674,-96.5433,4.0,6.236986452,131.0998311,7.43,'11111222,11111222,11111222' 
TABS,ioos:station:TABS:H:1,2007-03-02T23:30:00Z,27.8674,-96.5433,4.0,5.95021008,131.5938799,7.55,'11111222,11111222,11111222' 
TABS,ioos:station:TABS:H:1,2007-03-03T00:00:00Z,27.8674,-96.5433,4.0,6.43468725,134.8743914,8.05,'11111222,11111222,11111222' 
TABS,ioos:station:TABS:H:1,2007-03-03T00:30:00Z,27.8674,-96.5433,4.0,6.616237602,131.5691383,7.75,'11111222,11111222,11111222' 
TABS,ioos:station:TABS:H:1,2007-03-03T01:00:00Z,27.8674,-96.5433,4.0,5.88319641,135.2757734,7.15,'11111222,11111222,11111222' 
TABS,ioos:station:TABS:H:1,2007-03-03T01:30:00Z,27.8674,-96.5433,4.0,5.826834475,134.4440648,7.0,'11111222,11111222,11111222' 
TABS,ioos:station:TABS:H:1,2007-03-03T02:00:00Z,27.8674,-96.5433,4.0,6.015795874,137.4255054,7.11,'11111222,11111222,11111222' 
TABS,ioos:station:TABS:H:1,2007-03-03T02:30:00Z,27.8674,-96.5433,4.0,6.411442895,137.2757668,7.57,'11111222,11111222,11111222' 
TABS,ioos:station:TABS:H:1,2007-03-03T03:00:00Z,27.8674,-96.5433,4.0,6.323203302,138.0130961,7.67,'11111222,11111222,11111222' 
TABS,ioos:station:TABS:H:1,2007-03-03T03:30:00Z,27.8674,-96.5433,4.0,6.455981722,135.3140894,7.55,'11111222,11111222,11111222' 
TABS,ioos:station:TABS:H:1,2007-03-03T04:00:00Z,27.8674,-96.5433,4.0,6.792540026,129.3846944,8.11,'11111222,11111222,11111222' 
TABS,ioos:station:TABS:H:1,2007-03-03T04:30:00Z,27.8674,-96.5433,4.0,7.18616031,123.8230894,8.79,'11111222,11111222,11111222' 
TABS,ioos:station:TABS:H:1,2007-03-03T05:00:00Z,27.8674,-96.5433,4.0,7.71326779,131.6893819,9.76,'11111222,11111222,11111222' 
TABS,ioos:station:TABS:H:1,2007-03-03T05:30:00Z,27.8674,-96.5433,4.0,8.036578874,138.8345018,9.2,'11111222,11111222,11111222' 
TABS,ioos:station:TABS:H:1,2007-03-03T06:00:00Z,27.8674,-96.5433,4.0,8.040304721,142.6315689,10.1,'11111222,11111222,11111222' 
TABS,ioos:station:TABS:H:1,2007-03-03T06:30:00Z,27.8674,-96.5433,4.0,7.014648958,137.6002492,8.7,'11111222,11111222,11111222' 
TABS,ioos:station:TABS:H:1,2007-03-03T07:00:00Z,27.8674,-96.5433,4.0,6.821260881,137.1389933,8.55,'11111222,11111222,11111222' 
TABS,ioos:station:TABS:H:1,2007-03-03T07:30:00Z,27.8674,-96.5433,4.0,6.715094936,139.2879549,8.16,'11111222,11111222,11111222' 
TABS,ioos:station:TABS:H:1,2007-03-03T08:00:00Z,27.8674,-96.5433,4.0,6.621480197,144.3419088,8.1,'11111222,11111222,11111222' 
TABS,ioos:station:TABS:H:1,2007-03-03T08:30:00Z,27.8674,-96.5433,4.0,5.940412444,142.4552291,7.08,'11111222,11111222,11111222' 
TABS,ioos:station:TABS:H:1,2007-03-03T09:00:00Z,27.8674,-96.5433,4.0,5.142304931,142.5064338,6.01,'11111222,11111222,11111222' 
TABS,ioos:station:TABS:H:1,2007-03-03T09:30:00Z,27.8674,-96.5433,4.0,4.988707247,142.1656077,5.93,'11111222,11111222,11111222' 
TABS,ioos:station:TABS:H:1,2007-03-03T10:00:00Z,27.8674,-96.5433,4.0,4.702137812,142.691734,5.66,'11111222,11111222,11111222' 
TABS,ioos:station:TABS:H:1,2007-03-03T10:30:00Z,27.8674,-96.5433,4.0,3.588927416,146.1331105,4.23,'11111222,11111222,11111222' 
TABS,ioos:station:TABS:H:1,2007-03-03T11:00:00Z,27.8674,-96.5433,4.0,4.27800187,143.0768267,5.08,'11111222,11111222,11111222' 
TABS,ioos:station:TABS:H:1,2007-03-03T11:30:00Z,27.8674,-96.5433,4.0,3.062760193,136.4555503,3.79,'11111222,11111222,11111222' 
TABS,ioos:station:TABS:H:1,2007-03-03T12:00:00Z,27.8674,-96.5433,4.0,2.334973233,115.3582091,3.22,'11111222,11111222,11111222' 
TABS,ioos:station:TABS:H:1,2007-03-03T12:30:00Z,27.8674,-96.5433,4.0,2.307661154,105.843466,3.1,'11111222,11111222,11111222' 
TABS,ioos:station:TABS:H:1,2007-03-03T13:00:00Z,27.8674,-96.5433,4.0,1.937627415,78.68967306,2.41,'11111222,11111222,11111222' 
TABS,ioos:station:TABS:H:1,2007-03-03T13:30:00Z,27.8674,-96.5433,4.0,5.572800014,27.34645239,7.28,'11111222,11111222,11111222' 
TABS,ioos:station:TABS:H:1,2007-03-03T14:00:00Z,27.8674,-96.5433,4.0,6.046040026,36.66111625,7.11,'11111222,11111222,11111222' 
TABS,ioos:station:TABS:H:1,2007-03-03T14:30:00Z,27.8674,-96.5433,4.0,5.975558551,45.74550266,6.74,'11111222,11111222,11111222' 
TABS,ioos:station:TABS:H:1,2007-03-03T15:00:00Z,27.8674,-96.5433,4.0,5.791726858,45.76917663,6.94,'11111222,11111222,11111222' 
TABS,ioos:station:TABS:H:1,2007-03-03T15:30:00Z,27.8674,-96.5433,4.0,6.587518501,39.95003758,7.95,'11111222,11111222,11111222' 
TABS,ioos:station:TABS:H:1,2007-03-03T16:00:00Z,27.8674,-96.5433,4.0,7.610026281,36.71902143,9.41,'11111222,11111222,11111222' 
TABS,ioos:station:TABS:H:1,2007-03-03T16:30:00Z,27.8674,-96.5433,4.0,9.572000836,36.84565795,11.45,'11111222,11111222,11111222' 
TABS,ioos:station:TABS:H:1,2007-03-03T17:00:00Z,27.8674,-96.5433,4.0,9.0443463,38.17471726,10.6,'11111222,11111222,11111222' 
TABS,ioos:station:TABS:H:1,2007-03-03T17:30:00Z,27.8674,-96.5433,4.0,7.900898683,38.4216735,9.82,'11111222,11111222,11111222' 
TABS,ioos:station:TABS:H:1,2007-03-03T18:00:00Z,27.8674,-96.5433,4.0,7.754256895,40.34452702,9.97,'11111222,11111222,11111222' 
TABS,ioos:station:TABS:H:1,2007-03-03T18:30:00Z,27.8674,-96.5433,4.0,6.492226121,44.0011685,7.92,'11111222,11111222,11111222' 
TABS,ioos:station:TABS:H:1,2007-03-03T19:00:00Z,27.8674,-96.5433,4.0,5.920008446,53.03298456,6.99,'11111222,11111222,11111222' 
TABS,ioos:station:TABS:H:1,2007-03-03T19:30:00Z,27.8674,-96.5433,4.0,5.112113066,53.51083636,6.0,'11111222,11111222,11111222' 
TABS,ioos:station:TABS:H:1,2007-03-03T20:00:00Z,27.8674,-96.5433,4.0,5.487312639,45.44268305,6.63,'11111222,11111222,11111222' 
TABS,ioos:station:TABS:H:1,2007-03-03T20:30:00Z,27.8674,-96.5433,4.0,7.282478974,42.60679785,8.36,'11111222,11111222,11111222' 
TABS,ioos:station:TABS:H:1,2007-03-03T21:00:00Z,27.8674,-96.5433,4.0,7.814985605,28.92614773,10.55,'11111222,11111222,11111222' 
TABS,ioos:station:TABS:H:1,2007-03-03T21:30:00Z,27.8674,-96.5433,4.0,10.20150969,18.39917409,12.22,'11111222,11111222,11111222' 
TABS,ioos:station:TABS:H:1,2007-03-03T22:00:00Z,27.8674,-96.5433,4.0,9.310295377,19.05744949,11.0,'11111222,11111222,11111222' 
TABS,ioos:station:TABS:H:1,2007-03-03T22:30:00Z,27.8674,-96.5433,4.0,9.131730395,15.95376663,10.52,'11111222,11111222,11111222' 
TABS,ioos:station:TABS:H:1,2007-03-03T23:00:00Z,27.8674,-96.5433,4.0,8.956433442,23.07232767,10.44,'11111222,11111222,11111222' 
TABS,ioos:station:TABS:H:1,2007-03-03T23:30:00Z,27.8674,-96.5433,4.0,9.794901735,19.37812885,11.63,'11111222,11111222,11111222' 
TABS,ioos:station:TABS:H:1,2007-03-04T00:00:00Z,27.8674,-96.5433,4.0,10.56841521,21.24743826,12.71,'11111222,11111222,11111222' 
TABS,ioos:station:TABS:H:1,2007-03-04T00:30:00Z,27.8674,-96.5433,4.0,12.13031327,17.16498662,14.5,'11111222,11111222,11111222' 
TABS,ioos:station:TABS:H:1,2007-03-04T01:00:00Z,27.8674,-96.5433,4.0,12.49634347,9.906817316,15.13,'11111222,11111222,11111222' 
TABS,ioos:station:TABS:H:1,2007-03-04T01:30:00Z,27.8674,-96.5433,4.0,12.37495859,11.1825739,15.16,'11111222,11111222,11111222' 
TABS,ioos:station:TABS:H:1,2007-03-04T02:00:00Z,27.8674,-96.5433,4.0,12.48724149,13.14569663,14.48,'11111222,11111222,11111222' 
TABS,ioos:station:TABS:H:1,2007-03-04T02:30:00Z,27.8674,-96.5433,4.0,13.06972456,9.512538605,15.51,'11111222,11111222,11111222' 
TABS,ioos:station:TABS:H:1,2007-03-04T03:00:00Z,27.8674,-96.5433,4.0,13.24426291,7.854562237,15.65,'11111222,11111222,11111222' 
TABS,ioos:station:TABS:H:1,2007-03-04T03:30:00Z,27.8674,-96.5433,4.0,13.11875756,4.941142295,14.86,'11111222,11111222,11111222' 
TABS,ioos:station:TABS:H:1,2007-03-04T04:00:00Z,27.8674,-96.5433,4.0,12.36956345,9.774303633,15.16,'11111222,11111222,11111222' 
TABS,ioos:station:TABS:H:1,2007-03-04T04:30:00Z,27.8674,-96.5433,4.0,12.15629055,10.57019942,14.81,'11111222,11111222,11111222' 
TABS,ioos:station:TABS:H:1,2007-03-04T05:00:00Z,27.8674,-96.5433,4.0,12.44383381,15.52139959,14.62,'11111222,11111222,11111222' 
TABS,ioos:station:TABS:H:1,2007-03-04T05:30:00Z,27.8674,-96.5433,4.0,12.60501488,16.5945043,15.43,'11111222,11111222,11111222' 
TABS,ioos:station:TABS:H:1,2007-03-04T06:00:00Z,27.8674,-96.5433,4.0,11.98145233,21.33938285,14.67,'11111222,11111222,11111222' 
TABS,ioos:station:TABS:H:1,2007-03-04T06:30:00Z,27.8674,-96.5433,4.0,12.68028785,17.24864904,15.03,'11111222,11111222,11111222' 
TABS,ioos:station:TABS:H:1,2007-03-04T07:00:00Z,27.8674,-96.5433,4.0,13.22465122,18.37989312,16.08,'11111222,11111222,11111222' 
TABS,ioos:station:TABS:H:1,2007-03-04T07:30:00Z,27.8674,-96.5433,4.0,13.23696718,25.17090479,15.47,'11111222,11111222,11111222' 
TABS,ioos:station:TABS:H:1,2007-03-04T08:00:00Z,27.8674,-96.5433,4.0,13.02708333,22.90379379,15.72,'11111222,11111222,11111222' 
TABS,ioos:station:TABS:H:1,2007-03-04T08:30:00Z,27.8674,-96.5433,4.0,13.66489297,14.49362341,16.43,'11111222,11111222,11111222' 
TABS,ioos:station:TABS:H:1,2007-03-04T09:00:00Z,27.8674,-96.5433,4.0,11.80420688,24.63248935,14.45,'11111222,11111222,11111222' 
TABS,ioos:station:TABS:H:1,2007-03-04T09:30:00Z,27.8674,-96.5433,4.0,12.43395754,17.16684801,14.57,'11111222,11111222,11111222' 
TABS,ioos:station:TABS:H:1,2007-03-04T10:00:00Z,27.8674,-96.5433,4.0,11.72594133,17.05936938,14.34,'11111222,11111222,11111222' 
TABS,ioos:station:TABS:H:1,2007-03-04T10:30:00Z,27.8674,-96.5433,4.0,10.84698115,21.24204034,13.19,'11111222,11111222,11111222' 
TABS,ioos:station:TABS:H:1,2007-03-04T11:00:00Z,27.8674,-96.5433,4.0,10.75644923,21.02960277,13.24,'11111222,11111222,11111222' 
TABS,ioos:station:TABS:H:1,2007-03-04T11:30:00Z,27.8674,-96.5433,4.0,11.61164932,25.5055037,14.07,'11111222,11111222,11111222' 
TABS,ioos:station:TABS:H:1,2007-03-04T12:00:00Z,27.8674,-96.5433,4.0,11.32731213,20.3545009,13.67,'11111222,11111222,11111222' 
TABS,ioos:station:TABS:H:1,2007-03-04T12:30:00Z,27.8674,-96.5433,4.0,10.88183808,21.56649142,12.69,'11111222,11111222,11111222' 
TABS,ioos:station:TABS:H:1,2007-03-04T13:00:00Z,27.8674,-96.5433,4.0,11.09704916,19.03881618,13.42,'11111222,11111222,11111222' 
TABS,ioos:station:TABS:H:1,2007-03-04T13:30:00Z,27.8674,-96.5433,4.0,11.72681116,21.5108163,14.53,'11111222,11111222,11111222' 
TABS,ioos:station:TABS:H:1,2007-03-04T14:00:00Z,27.8674,-96.5433,4.0,11.43185899,14.85046012,13.47,'11111222,11111222,11111222' 
TABS,ioos:station:TABS:H:1,2007-03-04T14:30:00Z,27.8674,-96.5433,4.0,10.99240192,11.54480573,13.56,'11111222,11111222,11111222' 
TABS,ioos:station:TABS:H:1,2007-03-04T15:00:00Z,27.8674,-96.5433,4.0,11.11270444,18.9564397,13.04,'11111222,11111222,11111222' 
TABS,ioos:station:TABS:H:1,2007-03-04T15:30:00Z,27.8674,-96.5433,4.0,10.08421539,12.89216887,12.26,'11111222,11111222,11111222' 
TABS,ioos:station:TABS:H:1,2007-03-04T16:00:00Z,27.8674,-96.5433,4.0,10.08289641,17.42835078,12.26,'11111222,11111222,11111222' 
TABS,ioos:station:TABS:H:1,2007-03-04T16:30:00Z,27.8674,-96.5433,4.0,10.44855014,12.77242836,13.52,'11111222,11111222,11111222' 
TABS,ioos:station:TABS:H:1,2007-03-04T17:00:00Z,27.8674,-96.5433,4.0,9.184165722,11.49321719,11.49,'11111222,11111222,11111222' 
TABS,ioos:station:TABS:H:1,2007-03-04T17:30:00Z,27.8674,-96.5433,4.0,8.664698494,10.84283328,10.47,'11111222,11111222,11111222' 
TABS,ioos:station:TABS:H:1,2007-03-04T18:00:00Z,27.8674,-96.5433,4.0,8.128419281,12.36036665,11.09,'11111222,11111222,11111222' 
TABS,ioos:station:TABS:H:1,2007-03-04T18:30:00Z,27.8674,-96.5433,4.0,8.557160744,9.076822116,10.65,'11111222,11111222,11111222' 
TABS,ioos:station:TABS:H:1,2007-03-04T19:00:00Z,27.8674,-96.5433,4.0,8.185499374,8.288257126,10.41,'11111222,11111222,11111222' 
TABS,ioos:station:TABS:H:1,2007-03-04T19:30:00Z,27.8674,-96.5433,4.0,7.616725018,9.140554732,9.57,'11111222,11111222,11111222' 
TABS,ioos:station:TABS:H:1,2007-03-04T20:00:00Z,27.8674,-96.5433,4.0,7.960025126,359.8558309,9.72,'11111222,11144222,11111222' 
TABS,ioos:station:TABS:H:1,2007-03-04T20:30:00Z,27.8674,-96.5433,4.0,5.430515629,348.9588752,8.14,'11111222,11111222,11111222' 